Year,Month,Day,Hour,Minute,Value (Times are PST for temperature in C)
2010,01,20,00,00,7.70
2010,01,20,00,01,7.70
2010,01,20,00,02,7.70
2010,01,20,00,03,7.70
2010,01,20,00,04,7.70
2010,01,20,00,05,7.70
2010,01,20,00,06,7.70
2010,01,20,00,07,7.70
2010,01,20,00,08,7.70
2010,01,20,00,09,7.70
2010,01,20,00,10,7.70
2010,01,20,00,11,7.70
2010,01,20,00,12,7.60
2010,01,20,00,13,7.60
2010,01,20,00,14,7.60
2010,01,20,00,15,7.60
2010,01,20,00,16,7.60
2010,01,20,00,17,7.50
2010,01,20,00,18,7.50
2010,01,20,00,19,7.60
2010,01,20,00,20,7.60
2010,01,20,00,21,7.60
2010,01,20,00,22,7.70
2010,01,20,00,23,7.70
2010,01,20,00,24,7.80
2010,01,20,00,25,7.80
2010,01,20,00,26,7.90
2010,01,20,00,27,7.90
2010,01,20,00,28,8.00
2010,01,20,00,29,8.10
2010,01,20,00,30,8.10
2010,01,20,00,31,8.20
2010,01,20,00,32,8.30
2010,01,20,00,33,8.30
2010,01,20,00,34,8.40
2010,01,20,00,35,8.50
2010,01,20,00,36,8.60
2010,01,20,00,37,8.70
2010,01,20,00,38,8.80
2010,01,20,00,39,8.90
2010,01,20,00,40,9.00
2010,01,20,00,41,9.10
2010,01,20,00,42,9.20
2010,01,20,00,43,9.20
2010,01,20,00,44,9.20
2010,01,20,00,45,9.30
2010,01,20,00,46,9.30
2010,01,20,00,47,9.30
2010,01,20,00,48,9.40
2010,01,20,00,49,9.40
2010,01,20,00,50,9.40
2010,01,20,00,51,9.50
2010,01,20,00,52,9.50
2010,01,20,00,53,9.50
2010,01,20,00,54,9.50
2010,01,20,00,55,9.60
2010,01,20,00,56,9.60
2010,01,20,00,57,9.60
2010,01,20,00,58,9.60
2010,01,20,00,59,9.60
2010,01,20,01,00,9.70
2010,01,20,01,01,9.70
2010,01,20,01,02,9.80
2010,01,20,01,03,9.80
2010,01,20,01,04,9.80
2010,01,20,01,05,9.80
2010,01,20,01,06,9.80
2010,01,20,01,07,9.90
2010,01,20,01,08,9.90
2010,01,20,01,09,9.90
2010,01,20,01,10,9.90
2010,01,20,01,11,9.90
2010,01,20,01,12,9.90
2010,01,20,01,13,9.90
2010,01,20,01,14,9.90
2010,01,20,01,15,9.80
2010,01,20,01,16,9.80
2010,01,20,01,17,9.80
2010,01,20,01,18,9.80
2010,01,20,01,19,9.80
2010,01,20,01,20,9.70
2010,01,20,01,21,9.70
2010,01,20,01,22,9.70
2010,01,20,01,23,9.70
2010,01,20,01,24,9.70
2010,01,20,01,25,9.60
2010,01,20,01,26,9.60
2010,01,20,01,27,9.60
2010,01,20,01,28,9.50
2010,01,20,01,29,9.50
2010,01,20,01,30,9.50
2010,01,20,01,31,9.40
2010,01,20,01,32,9.40
2010,01,20,01,33,9.40
2010,01,20,01,34,9.40
2010,01,20,01,35,9.30
2010,01,20,01,36,9.30
2010,01,20,01,37,9.30
2010,01,20,01,38,9.30
2010,01,20,01,39,9.30
2010,01,20,01,40,9.30
2010,01,20,01,41,9.30
2010,01,20,01,42,9.30
2010,01,20,01,43,9.30
2010,01,20,01,44,9.30
2010,01,20,01,45,9.30
2010,01,20,01,46,9.30
2010,01,20,01,47,9.30
2010,01,20,01,48,9.30
2010,01,20,01,49,9.30
2010,01,20,01,50,9.20
2010,01,20,01,51,9.20
2010,01,20,01,52,9.20
2010,01,20,01,53,9.20
2010,01,20,01,54,9.10
2010,01,20,01,55,9.10
2010,01,20,01,56,9.10
2010,01,20,01,57,9.10
2010,01,20,01,58,9.10
2010,01,20,01,59,9.00
2010,01,20,02,00,9.00
2010,01,20,02,01,9.00
2010,01,20,02,02,8.90
2010,01,20,02,03,8.90
2010,01,20,02,04,8.90
2010,01,20,02,05,8.90
2010,01,20,02,06,8.90
2010,01,20,02,07,8.90
2010,01,20,02,08,8.90
2010,01,20,02,09,8.80
2010,01,20,02,10,8.80
2010,01,20,02,11,8.80
2010,01,20,02,12,8.80
2010,01,20,02,13,8.80
2010,01,20,02,14,8.80
2010,01,20,02,15,8.80
2010,01,20,02,16,8.70
2010,01,20,02,17,8.70
2010,01,20,02,18,8.70
2010,01,20,02,19,8.70
2010,01,20,02,20,8.70
2010,01,20,02,21,8.70
2010,01,20,02,22,8.70
2010,01,20,02,23,8.80
2010,01,20,02,24,8.80
2010,01,20,02,25,8.80
2010,01,20,02,26,8.90
2010,01,20,02,27,8.90
2010,01,20,02,28,8.90
2010,01,20,02,29,8.90
2010,01,20,02,30,8.90
2010,01,20,02,31,8.90
2010,01,20,02,32,9.00
2010,01,20,02,33,9.00
2010,01,20,02,34,9.00
2010,01,20,02,35,9.00
2010,01,20,02,36,9.10
2010,01,20,02,37,9.10
2010,01,20,02,38,9.10
2010,01,20,02,39,9.10
2010,01,20,02,40,9.10
2010,01,20,02,41,9.10
2010,01,20,02,42,9.10
2010,01,20,02,43,9.10
2010,01,20,02,44,9.20
2010,01,20,02,45,9.20
2010,01,20,02,46,9.20
2010,01,20,02,47,9.20
2010,01,20,02,48,9.20
2010,01,20,02,49,9.20
2010,01,20,02,50,9.20
2010,01,20,02,51,9.20
2010,01,20,02,52,9.20
2010,01,20,02,53,9.20
2010,01,20,02,54,9.20
2010,01,20,02,55,9.20
2010,01,20,02,56,9.20
2010,01,20,02,57,9.20
2010,01,20,02,58,9.20
2010,01,20,02,59,9.20
2010,01,20,03,00,9.20
2010,01,20,03,01,9.20
2010,01,20,03,02,9.20
2010,01,20,03,03,9.20
2010,01,20,03,04,9.20
2010,01,20,03,05,9.20
2010,01,20,03,06,9.20
2010,01,20,03,07,9.10
2010,01,20,03,08,9.10
2010,01,20,03,09,9.10
2010,01,20,03,10,9.10
2010,01,20,03,11,9.00
2010,01,20,03,12,9.00
2010,01,20,03,13,8.90
2010,01,20,03,14,8.90
2010,01,20,03,15,8.90
2010,01,20,03,16,8.90
2010,01,20,03,17,8.80
2010,01,20,03,18,8.80
2010,01,20,03,19,8.80
2010,01,20,03,20,8.80
2010,01,20,03,21,8.80
2010,01,20,03,22,8.90
2010,01,20,03,23,8.90
2010,01,20,03,24,8.90
2010,01,20,03,25,8.90
2010,01,20,03,26,8.90
2010,01,20,03,27,8.90
2010,01,20,03,28,8.90
2010,01,20,03,29,8.90
2010,01,20,03,30,8.90
2010,01,20,03,31,8.90
2010,01,20,03,32,8.90
2010,01,20,03,33,8.90
2010,01,20,03,34,8.90
2010,01,20,03,35,8.90
2010,01,20,03,36,8.90
2010,01,20,03,37,8.90
2010,01,20,03,38,8.90
2010,01,20,03,39,8.90
2010,01,20,03,40,8.90
2010,01,20,03,41,8.90
2010,01,20,03,42,8.90
2010,01,20,03,43,9.00
2010,01,20,03,44,9.00
2010,01,20,03,45,9.00
2010,01,20,03,46,9.00
2010,01,20,03,47,9.00
2010,01,20,03,48,9.00
2010,01,20,03,49,9.00
2010,01,20,03,50,9.00
2010,01,20,03,51,8.90
2010,01,20,03,52,8.90
2010,01,20,03,53,8.90
2010,01,20,03,54,8.90
2010,01,20,03,55,8.90
2010,01,20,03,56,8.90
2010,01,20,03,57,8.90
2010,01,20,03,58,8.90
2010,01,20,03,59,8.90
2010,01,20,04,00,8.90
2010,01,20,04,01,8.90
2010,01,20,04,02,8.90
2010,01,20,04,03,8.90
2010,01,20,04,04,8.90
2010,01,20,04,05,8.80
2010,01,20,04,06,8.80
2010,01,20,04,07,8.80
2010,01,20,04,08,8.80
2010,01,20,04,09,8.80
2010,01,20,04,10,8.80
2010,01,20,04,11,8.80
2010,01,20,04,12,8.80
2010,01,20,04,13,8.80
2010,01,20,04,14,8.80
2010,01,20,04,15,8.80
2010,01,20,04,16,8.80
2010,01,20,04,17,8.80
2010,01,20,04,18,8.80
2010,01,20,04,19,8.80
2010,01,20,04,20,8.80
2010,01,20,04,21,8.80
2010,01,20,04,22,8.80
2010,01,20,04,23,8.80
2010,01,20,04,24,8.80
2010,01,20,04,25,8.80
2010,01,20,04,26,8.80
2010,01,20,04,27,8.80
2010,01,20,04,28,8.80
2010,01,20,04,29,8.90
2010,01,20,04,30,8.90
2010,01,20,04,31,8.90
2010,01,20,04,32,8.90
2010,01,20,04,33,8.90
2010,01,20,04,34,8.90
2010,01,20,04,35,8.90
2010,01,20,04,36,8.90
2010,01,20,04,37,8.90
2010,01,20,04,38,8.90
2010,01,20,04,39,8.90
2010,01,20,04,40,8.90
2010,01,20,04,41,8.90
2010,01,20,04,42,8.90
2010,01,20,04,43,8.90
2010,01,20,04,44,8.90
2010,01,20,04,45,8.90
2010,01,20,04,46,8.90
2010,01,20,04,47,9.00
2010,01,20,04,48,9.00
2010,01,20,04,49,9.00
2010,01,20,04,50,9.00
2010,01,20,04,51,9.00
2010,01,20,04,52,9.10
2010,01,20,04,53,9.10
2010,01,20,04,54,9.10
2010,01,20,04,55,9.10
2010,01,20,04,56,9.10
2010,01,20,04,57,9.10
2010,01,20,04,58,9.10
2010,01,20,04,59,9.10
2010,01,20,05,00,9.10
2010,01,20,05,01,9.10
2010,01,20,05,02,9.10
2010,01,20,05,03,9.10
2010,01,20,05,04,9.10
2010,01,20,05,05,9.10
2010,01,20,05,06,9.10
2010,01,20,05,07,9.00
2010,01,20,05,08,9.00
2010,01,20,05,09,8.90
2010,01,20,05,10,8.90
2010,01,20,05,11,8.90
2010,01,20,05,12,8.90
2010,01,20,05,13,8.80
2010,01,20,05,14,8.80
2010,01,20,05,15,8.80
2010,01,20,05,16,8.80
2010,01,20,05,17,8.70
2010,01,20,05,18,8.70
2010,01,20,05,19,8.70
2010,01,20,05,20,8.70
2010,01,20,05,21,8.70
2010,01,20,05,22,8.70
2010,01,20,05,23,8.60
2010,01,20,05,24,8.60
2010,01,20,05,25,8.60
2010,01,20,05,26,8.60
2010,01,20,05,27,8.60
2010,01,20,05,28,8.60
2010,01,20,05,29,8.60
2010,01,20,05,30,8.60
2010,01,20,05,31,8.50
2010,01,20,05,32,8.50
2010,01,20,05,33,8.50
2010,01,20,05,34,8.50
2010,01,20,05,35,8.50
2010,01,20,05,36,8.40
2010,01,20,05,37,8.40
2010,01,20,05,38,8.40
2010,01,20,05,39,8.40
2010,01,20,05,40,8.40
2010,01,20,05,41,8.40
2010,01,20,05,42,8.40
2010,01,20,05,43,8.40
2010,01,20,05,44,8.40
2010,01,20,05,45,8.40
2010,01,20,05,46,8.40
2010,01,20,05,47,8.40
2010,01,20,05,48,8.40
2010,01,20,05,49,8.40
2010,01,20,05,50,8.30
2010,01,20,05,51,8.30
2010,01,20,05,52,8.30
2010,01,20,05,53,8.30
2010,01,20,05,54,8.30
2010,01,20,05,55,8.30
2010,01,20,05,56,8.40
2010,01,20,05,57,8.40
2010,01,20,05,58,8.40
2010,01,20,05,59,8.40
2010,01,20,06,00,8.50
2010,01,20,06,01,8.50
2010,01,20,06,02,8.60
2010,01,20,06,03,8.60
2010,01,20,06,04,8.60
2010,01,20,06,05,8.70
2010,01,20,06,06,8.70
2010,01,20,06,07,8.70
2010,01,20,06,08,8.70
2010,01,20,06,09,8.70
2010,01,20,06,10,8.70
2010,01,20,06,11,8.70
2010,01,20,06,12,8.70
2010,01,20,06,13,8.70
2010,01,20,06,14,8.70
2010,01,20,06,15,8.70
2010,01,20,06,16,8.70
2010,01,20,06,17,8.60
2010,01,20,06,18,8.60
2010,01,20,06,19,8.50
2010,01,20,06,20,8.50
2010,01,20,06,21,8.40
2010,01,20,06,22,8.40
2010,01,20,06,23,8.40
2010,01,20,06,24,8.30
2010,01,20,06,25,8.30
2010,01,20,06,26,8.20
2010,01,20,06,27,8.20
2010,01,20,06,28,8.10
2010,01,20,06,29,8.10
2010,01,20,06,30,8.00
2010,01,20,06,31,7.90
2010,01,20,06,32,7.90
2010,01,20,06,33,7.80
2010,01,20,06,34,7.70
2010,01,20,06,35,7.70
2010,01,20,06,36,7.70
2010,01,20,06,37,7.70
2010,01,20,06,38,7.70
2010,01,20,06,39,7.60
2010,01,20,06,40,7.60
2010,01,20,06,41,7.60
2010,01,20,06,42,7.60
2010,01,20,06,43,7.70
2010,01,20,06,44,7.70
2010,01,20,06,45,7.70
2010,01,20,06,46,7.70
2010,01,20,06,47,7.70
2010,01,20,06,48,7.70
2010,01,20,06,49,7.70
2010,01,20,06,50,7.70
2010,01,20,06,51,7.80
2010,01,20,06,52,7.80
2010,01,20,06,53,7.80
2010,01,20,06,54,7.80
2010,01,20,06,55,7.70
2010,01,20,06,56,7.70
2010,01,20,06,57,7.70
2010,01,20,06,58,7.70
2010,01,20,06,59,7.70
2010,01,20,07,00,7.60
2010,01,20,07,01,7.60
2010,01,20,07,02,7.60
2010,01,20,07,03,7.60
2010,01,20,07,04,7.50
2010,01,20,07,05,7.50
2010,01,20,07,06,7.40
2010,01,20,07,07,7.40
2010,01,20,07,08,7.40
2010,01,20,07,09,7.30
2010,01,20,07,10,7.30
2010,01,20,07,11,7.30
2010,01,20,07,12,7.30
2010,01,20,07,13,7.20
2010,01,20,07,14,7.20
2010,01,20,07,15,7.20
2010,01,20,07,16,7.10
2010,01,20,07,17,7.10
2010,01,20,07,18,7.10
2010,01,20,07,19,7.10
2010,01,20,07,20,7.00
2010,01,20,07,21,7.00
2010,01,20,07,22,7.00
2010,01,20,07,23,7.00
2010,01,20,07,24,6.90
2010,01,20,07,25,6.90
2010,01,20,07,26,6.90
2010,01,20,07,27,6.90
2010,01,20,07,28,6.80
2010,01,20,07,29,6.80
2010,01,20,07,30,6.80
2010,01,20,07,31,6.80
2010,01,20,07,32,6.80
2010,01,20,07,33,6.80
2010,01,20,07,34,6.70
2010,01,20,07,35,6.70
2010,01,20,07,36,6.70
2010,01,20,07,37,6.70
2010,01,20,07,38,6.70
2010,01,20,07,39,6.70
2010,01,20,07,40,6.70
2010,01,20,07,41,6.70
2010,01,20,07,42,6.60
2010,01,20,07,43,6.60
2010,01,20,07,44,6.60
2010,01,20,07,45,6.60
2010,01,20,07,46,6.60
2010,01,20,07,47,6.60
2010,01,20,07,48,6.60
2010,01,20,07,49,6.50
2010,01,20,07,50,6.50
2010,01,20,07,51,6.50
2010,01,20,07,52,6.50
2010,01,20,07,53,6.50
2010,01,20,07,54,6.40
2010,01,20,07,55,6.40
2010,01,20,07,56,6.40
2010,01,20,07,57,6.40
2010,01,20,07,58,6.40
2010,01,20,07,59,6.40
2010,01,20,08,00,6.40
2010,01,20,08,01,6.40
2010,01,20,08,02,6.40
2010,01,20,08,03,6.40
2010,01,20,08,04,6.40
2010,01,20,08,05,6.40
2010,01,20,08,06,6.40
2010,01,20,08,07,6.40
2010,01,20,08,08,6.40
2010,01,20,08,09,6.40
2010,01,20,08,10,6.40
2010,01,20,08,11,6.40
2010,01,20,08,12,6.40
2010,01,20,08,13,6.40
2010,01,20,08,14,6.40
2010,01,20,08,15,6.40
2010,01,20,08,16,6.40
2010,01,20,08,17,6.50
2010,01,20,08,18,6.50
2010,01,20,08,19,6.50
2010,01,20,08,20,6.50
2010,01,20,08,21,6.50
2010,01,20,08,22,6.50
2010,01,20,08,23,6.50
2010,01,20,08,24,6.50
2010,01,20,08,25,6.50
2010,01,20,08,26,6.50
2010,01,20,08,27,6.50
2010,01,20,08,28,6.50
2010,01,20,08,29,6.50
2010,01,20,08,30,6.50
2010,01,20,08,31,6.50
2010,01,20,08,32,6.50
2010,01,20,08,33,6.50
2010,01,20,08,34,6.50
2010,01,20,08,35,6.50
2010,01,20,08,36,6.50
2010,01,20,08,37,6.50
2010,01,20,08,38,6.50
2010,01,20,08,39,6.50
2010,01,20,08,40,6.50
2010,01,20,08,41,6.50
2010,01,20,08,42,6.50
2010,01,20,08,43,6.40
2010,01,20,08,44,6.40
2010,01,20,08,45,6.40
2010,01,20,08,46,6.40
2010,01,20,08,47,6.40
2010,01,20,08,48,6.40
2010,01,20,08,49,6.40
2010,01,20,08,50,6.40
2010,01,20,08,51,6.40
2010,01,20,08,52,6.40
2010,01,20,08,53,6.30
2010,01,20,08,54,6.30
2010,01,20,08,55,6.30
2010,01,20,08,56,6.30
2010,01,20,08,57,6.30
2010,01,20,08,58,6.30
2010,01,20,08,59,6.30
2010,01,20,09,00,6.40
2010,01,20,09,01,6.40
2010,01,20,09,02,6.40
2010,01,20,09,03,6.50
2010,01,20,09,04,6.50
2010,01,20,09,05,6.60
2010,01,20,09,06,6.70
2010,01,20,09,07,6.80
2010,01,20,09,08,6.80
2010,01,20,09,09,6.90
2010,01,20,09,10,6.90
2010,01,20,09,11,7.00
2010,01,20,09,12,7.10
2010,01,20,09,13,7.10
2010,01,20,09,14,7.20
2010,01,20,09,15,7.30
2010,01,20,09,16,7.30
2010,01,20,09,17,7.40
2010,01,20,09,18,7.50
2010,01,20,09,19,7.50
2010,01,20,09,20,7.60
2010,01,20,09,21,7.70
2010,01,20,09,22,7.80
2010,01,20,09,23,7.80
2010,01,20,09,24,7.90
2010,01,20,09,25,8.00
2010,01,20,09,26,8.10
2010,01,20,09,27,8.10
2010,01,20,09,28,8.20
2010,01,20,09,29,8.30
2010,01,20,09,30,8.30
2010,01,20,09,31,8.40
2010,01,20,09,32,8.50
2010,01,20,09,33,8.50
2010,01,20,09,34,8.60
2010,01,20,09,35,8.70
2010,01,20,09,36,8.70
2010,01,20,09,37,8.70
2010,01,20,09,38,8.70
2010,01,20,09,39,8.60
2010,01,20,09,40,8.60
2010,01,20,09,41,8.50
2010,01,20,09,42,8.40
2010,01,20,09,43,8.30
2010,01,20,09,44,8.20
2010,01,20,09,45,8.20
2010,01,20,09,46,8.10
2010,01,20,09,47,8.10
2010,01,20,09,48,8.00
2010,01,20,09,49,7.90
2010,01,20,09,50,7.90
2010,01,20,09,51,7.90
2010,01,20,09,52,7.80
2010,01,20,09,53,7.80
2010,01,20,09,54,7.80
2010,01,20,09,55,7.80
2010,01,20,09,56,7.70
2010,01,20,09,57,7.70
2010,01,20,09,58,7.70
2010,01,20,09,59,7.80
2010,01,20,10,00,7.80
2010,01,20,10,01,7.80
2010,01,20,10,02,7.80
2010,01,20,10,03,7.90
2010,01,20,10,04,7.90
2010,01,20,10,05,7.90
2010,01,20,10,06,7.90
2010,01,20,10,07,7.90
2010,01,20,10,08,7.90
2010,01,20,10,09,7.90
2010,01,20,10,10,7.80
2010,01,20,10,11,7.80
2010,01,20,10,12,7.80
2010,01,20,10,13,7.90
2010,01,20,10,14,7.90
2010,01,20,10,15,7.90
2010,01,20,10,16,7.90
2010,01,20,10,17,7.90
2010,01,20,10,18,7.90
2010,01,20,10,19,7.90
2010,01,20,10,20,7.90
2010,01,20,10,21,7.90
2010,01,20,10,22,7.90
2010,01,20,10,23,7.90
2010,01,20,10,24,7.90
2010,01,20,10,25,7.90
2010,01,20,10,26,7.90
2010,01,20,10,27,8.00
2010,01,20,10,28,7.90
2010,01,20,10,29,8.00
2010,01,20,10,30,7.90
2010,01,20,10,31,7.90
2010,01,20,10,32,7.90
2010,01,20,10,33,7.90
2010,01,20,10,34,7.90
2010,01,20,10,35,7.90
2010,01,20,10,36,7.90
2010,01,20,10,37,7.90
2010,01,20,10,38,7.90
2010,01,20,10,39,7.90
2010,01,20,10,40,7.90
2010,01,20,10,41,7.90
2010,01,20,10,42,7.90
2010,01,20,10,43,7.90
2010,01,20,10,44,7.90
2010,01,20,10,45,7.90
2010,01,20,10,46,8.00
2010,01,20,10,47,8.00
2010,01,20,10,48,8.00
2010,01,20,10,49,8.10
2010,01,20,10,50,8.10
2010,01,20,10,51,8.10
2010,01,20,10,52,8.10
2010,01,20,10,53,8.20
2010,01,20,10,54,8.20
2010,01,20,10,55,8.20
2010,01,20,10,56,8.30
2010,01,20,10,57,8.30
2010,01,20,10,58,8.30
2010,01,20,10,59,8.40
2010,01,20,11,00,8.40
2010,01,20,11,01,8.50
2010,01,20,11,02,8.50
2010,01,20,11,03,8.60
2010,01,20,11,04,8.60
2010,01,20,11,05,8.60
2010,01,20,11,06,8.70
2010,01,20,11,07,8.70
2010,01,20,11,08,8.70
2010,01,20,11,09,8.80
2010,01,20,11,10,8.80
2010,01,20,11,11,8.80
2010,01,20,11,12,8.80
2010,01,20,11,13,8.90
2010,01,20,11,14,8.90
2010,01,20,11,15,9.00
2010,01,20,11,16,9.00
2010,01,20,11,17,9.10
2010,01,20,11,18,9.10
2010,01,20,11,19,9.20
2010,01,20,11,20,9.20
2010,01,20,11,21,9.30
2010,01,20,11,22,9.40
2010,01,20,11,23,9.40
2010,01,20,11,24,9.40
2010,01,20,11,25,9.50
2010,01,20,11,26,9.60
2010,01,20,11,27,9.60
2010,01,20,11,28,9.70
2010,01,20,11,29,9.70
2010,01,20,11,30,9.70
2010,01,20,11,31,9.80
2010,01,20,11,32,9.80
2010,01,20,11,33,9.80
2010,01,20,11,34,9.90
2010,01,20,11,35,9.90
2010,01,20,11,36,9.90
2010,01,20,11,37,10.00
2010,01,20,11,38,10.00
2010,01,20,11,39,10.10
2010,01,20,11,40,10.10
2010,01,20,11,41,10.20
2010,01,20,11,42,10.20
2010,01,20,11,43,10.20
2010,01,20,11,44,10.30
2010,01,20,11,45,10.30
2010,01,20,11,46,10.30
2010,01,20,11,47,10.30
2010,01,20,11,48,10.30
2010,01,20,11,49,10.40
2010,01,20,11,50,10.40
2010,01,20,11,51,10.40
2010,01,20,11,52,10.50
2010,01,20,11,53,10.60
2010,01,20,11,54,10.60
2010,01,20,11,55,10.70
2010,01,20,11,56,10.70
2010,01,20,11,57,10.70
2010,01,20,11,58,10.80
2010,01,20,11,59,10.80
2010,01,20,12,00,10.80
2010,01,20,12,01,10.80
2010,01,20,12,02,10.80
2010,01,20,12,03,10.80
2010,01,20,12,04,10.80
2010,01,20,12,05,10.80
2010,01,20,12,06,10.80
2010,01,20,12,07,10.80
2010,01,20,12,08,10.70
2010,01,20,12,09,10.70
2010,01,20,12,10,10.70
2010,01,20,12,11,10.70
2010,01,20,12,12,10.60
2010,01,20,12,13,10.60
2010,01,20,12,14,10.60
2010,01,20,12,15,10.60
2010,01,20,12,16,10.50
2010,01,20,12,17,10.50
2010,01,20,12,18,10.50
2010,01,20,12,19,10.50
2010,01,20,12,20,10.50
2010,01,20,12,21,10.50
2010,01,20,12,22,10.40
2010,01,20,12,23,10.40
2010,01,20,12,24,10.40
2010,01,20,12,25,10.40
2010,01,20,12,26,10.40
2010,01,20,12,27,10.40
2010,01,20,12,28,10.40
2010,01,20,12,29,10.40
2010,01,20,12,30,10.40
2010,01,20,12,31,10.40
2010,01,20,12,32,10.40
2010,01,20,12,33,10.40
2010,01,20,12,34,10.40
2010,01,20,12,35,10.40
2010,01,20,12,36,10.40
2010,01,20,12,37,10.40
2010,01,20,12,38,10.40
2010,01,20,12,39,10.40
2010,01,20,12,40,10.40
2010,01,20,12,41,10.40
2010,01,20,12,42,10.50
2010,01,20,12,43,10.50
2010,01,20,12,44,10.50
2010,01,20,12,45,10.50
2010,01,20,12,46,10.50
2010,01,20,12,47,10.40
2010,01,20,12,48,10.40
2010,01,20,12,49,10.40
2010,01,20,12,50,10.40
2010,01,20,12,51,10.40
2010,01,20,12,52,10.40
2010,01,20,12,53,10.30
2010,01,20,12,54,10.40
2010,01,20,12,55,10.40
2010,01,20,12,56,10.40
2010,01,20,12,57,10.40
2010,01,20,12,58,10.40
2010,01,20,12,59,10.40
2010,01,20,13,00,10.40
2010,01,20,13,01,10.40
2010,01,20,13,02,10.40
2010,01,20,13,03,10.50
2010,01,20,13,04,10.50
2010,01,20,13,05,10.60
2010,01,20,13,06,10.60
2010,01,20,13,07,10.60
2010,01,20,13,08,10.70
2010,01,20,13,09,10.70
2010,01,20,13,10,10.70
2010,01,20,13,11,10.70
2010,01,20,13,12,10.70
2010,01,20,13,13,10.60
2010,01,20,13,14,10.60
2010,01,20,13,15,10.60
2010,01,20,13,16,10.60
2010,01,20,13,17,10.60
2010,01,20,13,18,10.60
2010,01,20,13,19,10.60
2010,01,20,13,20,10.60
2010,01,20,13,21,10.70
2010,01,20,13,22,10.70
2010,01,20,13,23,10.70
2010,01,20,13,24,10.70
2010,01,20,13,25,10.80
2010,01,20,13,26,10.80
2010,01,20,13,27,10.80
2010,01,20,13,28,10.80
2010,01,20,13,29,10.90
2010,01,20,13,30,10.90
2010,01,20,13,31,10.90
2010,01,20,13,32,11.00
2010,01,20,13,33,11.10
2010,01,20,13,34,11.10
2010,01,20,13,35,11.20
2010,01,20,13,36,11.20
2010,01,20,13,37,11.20
2010,01,20,13,38,11.30
2010,01,20,13,39,11.30
